"Period start","avg(HW err(1)/warn(2) (#))","avg(Visibility (m))","avg(Weather code (#))","avg(Precip intensity (mm/h))","min(HW err(1)/warn(2) (#))","max(HW err(1)/warn(2) (#))","std(HW err(1)/warn(2) (#))","med(HW err(1)/warn(2) (#))","min(Visibility (m))","max(Visibility (m))","std(Visibility (m))","med(Visibility (m))","min(Weather code (#))","max(Weather code (#))","std(Weather code (#))","med(Weather code (#))","min(Precip intensity (mm/h))","max(Precip intensity (mm/h))","std(Precip intensity (mm/h))","med(Precip intensity (mm/h))"
2016-09-14 00:00:00,0,40339,0,0.00,0,0,0,0,33798,46719,4107,39160,0,0,0,0,0.00,0.00,0.00,0.00
2016-09-14 00:10:00,0,43479,0,0.00,0,0,0,0,30105,50000,6373,46298,0,0,0,0,0.00,0.00,0.00,0.00
2016-09-14 00:20:00,0,42040,0,0.00,0,0,0,0,30306,49873,5760,42798,0,0,0,0,0.00,0.00,0.00,0.00
2016-09-14 00:30:00,0,39062,0,0.00,0,0,0,0,25629,49152,8083,41106,0,0,0,0,0.00,0.00,0.00,0.00
2016-09-14 00:40:00,1,31967,0,0.00,0,2,1,1,22596,45956,7124,29176,0,0,0,0,0.00,0.00,0.00,0.00
2016-09-14 00:50:00,1,30218,0,0.00,0,2,1,0,24547,35285,4058,30452,0,0,0,0,0.00,0.00,0.00,0.00
2016-09-14 01:00:00,0,33674,0,0.00,0,0,0,0,23594,45480,7600,29486,0,0,0,0,0.00,0.00,0.00,0.00
2016-09-14 01:10:00,0,25433,0,0.00,0,0,0,0,19951,28849,2866,26375,0,0,0,0,0.00,0.00,0.00,0.00
2016-09-14 01:20:00,0,27028,0,0.00,0,0,0,0,18740,35875,5810,27747,0,0,0,0,0.00,0.00,0.00,0.00
2016-09-14 01:30:00,1,35190,0,0.00,0,2,1,2,24875,45399,6567,35818,0,0,0,0,0.00,0.00,0.00,0.00
2016-09-14 01:40:00,2,32895,0,0.00,0,2,1,2,19736,49626,9446,34468,0,0,0,0,0.00,0.00,0.00,0.00
2016-09-14 01:50:00,1,41911,0,0.00,0,2,1,2,34759,50000,5406,41231,0,0,0,0,0.00,0.00,0.00,0.00
2016-09-14 02:00:00,0,39904,0,0.00,0,0,0,0,35393,44862,2676,39868,0,0,0,0,0.00,0.00,0.00,0.00
2016-09-14 02:10:00,0,37393,0,0.00,0,2,1,0,27839,42954,4943,38920,0,0,0,0,0.00,0.00,0.00,0.00
2016-09-14 02:20:00,0,36079,0,0.00,0,0,0,0,24581,44625,6081,36160,0,0,0,0,0.00,0.00,0.00,0.00
2016-09-14 02:30:00,0,42608,0,0.00,0,0,0,0,35671,47705,3451,43328,0,0,0,0,0.00,0.00,0.00,0.00
2016-09-14 02:40:00,0,42647,0,0.00,0,0,0,0,34904,47195,3635,43622,0,0,0,0,0.00,0.00,0.00,0.00
2016-09-14 02:50:00,0,49760,0,0.00,0,0,0,0,49145,50000,334,50000,0,0,0,0,0.00,0.00,0.00,0.00
2016-09-14 03:00:00,0,46485,0,0.00,0,0,0,0,40017,50000,3932,48298,0,0,0,0,0.00,0.00,0.00,0.00
2016-09-14 03:10:00,0,43298,0,0.00,0,0,0,0,35878,49243,3562,42559,0,0,0,0,0.00,0.00,0.00,0.00
2016-09-14 03:20:00,0,40734,0,0.00,0,0,0,0,33523,49939,4743,40416,0,0,0,0,0.00,0.00,0.00,0.00
2016-09-14 03:30:00,0,35950,0,0.00,0,0,0,0,32238,43250,3349,35376,0,0,0,0,0.00,0.00,0.00,0.00
2016-09-14 03:40:00,2,31582,0,0.00,0,2,1,2,24405,36428,3829,32160,0,0,0,0,0.00,0.00,0.00,0.00
2016-09-14 03:50:00,2,28071,0,0.00,2,2,0,2,21792,36235,4923,27310,0,0,0,0,0.00,0.00,0.00,0.00
2016-09-14 04:00:00,2,38526,0,0.00,2,2,0,2,33844,46633,3592,38018,0,0,0,0,0.00,0.00,0.00,0.00
2016-09-14 04:10:00,1,35717,0,0.00,0,2,1,2,23361,43651,6850,37948,0,0,0,0,0.00,0.00,0.00,0.00
2016-09-14 04:20:00,0,24543,0,0.00,0,2,1,0,11911,32078,6471,25410,0,0,0,0,0.00,0.00,0.00,0.00
2016-09-14 04:30:00,0,20022,0,0.00,0,0,0,0,15164,29524,4511,18667,0,0,0,0,0.00,0.00,0.00,0.00
2016-09-14 04:40:00,0,28641,0,0.00,0,0,0,0,21486,34089,4176,29396,0,0,0,0,0.00,0.00,0.00,0.00
2016-09-14 04:50:00,0,26317,0,0.00,0,0,0,0,22412,32904,3118,25578,0,0,0,0,0.00,0.00,0.00,0.00
2016-09-14 05:00:00,0,40796,0,0.00,0,0,0,0,34233,49548,5004,41034,0,0,0,0,0.00,0.00,0.00,0.00
2016-09-14 05:10:00,0,37059,0,0.00,0,0,0,0,32526,41663,2654,36676,0,0,0,0,0.00,0.00,0.00,0.00
2016-09-14 05:20:00,0,44013,0,0.00,0,0,0,0,38784,47846,2840,44610,0,0,0,0,0.00,0.00,0.00,0.00
2016-09-14 05:30:00,0,36390,0,0.00,0,0,0,0,28770,44089,4546,36683,0,0,0,0,0.00,0.00,0.00,0.00
2016-09-14 05:40:00,0,30900,0,0.00,0,0,0,0,21606,38578,5801,31894,0,0,0,0,0.00,0.00,0.00,0.00
2016-09-14 05:50:00,0,26968,0,0.00,0,0,0,0,21674,36594,4467,26184,0,0,0,0,0.00,0.00,0.00,0.00
2016-09-14 06:00:00,0,33274,0,0.00,0,0,0,0,27168,36477,2522,33500,0,0,0,0,0.00,0.00,0.00,0.00
2016-09-14 06:10:00,0,28877,0,0.00,0,0,0,0,20817,38175,5104,29538,0,0,0,0,0.00,0.00,0.00,0.00
2016-09-14 06:20:00,0,33642,0,0.00,0,0,0,0,27164,39207,4151,33572,0,0,0,0,0.00,0.00,0.00,0.00
2016-09-14 06:30:00,0,35956,0,0.00,0,0,0,0,26633,47481,7459,34738,0,0,0,0,0.00,0.00,0.00,0.00
2016-09-14 06:40:00,0,25435,0,0.00,0,0,0,0,14890,34519,6261,25859,0,0,0,0,0.00,0.00,0.00,0.00
2016-09-14 06:50:00,0,21785,0,0.00,0,0,0,0,17404,25054,2245,21708,0,0,0,0,0.00,0.00,0.00,0.00
2016-09-14 07:00:00,0,13875,0,0.00,0,0,0,0,7823,24418,4406,13160,0,0,0,0,0.00,0.00,0.00,0.00
2016-09-14 07:10:00,0,11198,0,0.00,0,0,0,0,7728,13773,1879,10703,0,0,0,0,0.00,0.00,0.00,0.00
2016-09-14 07:20:00,0,17962,0,0.00,0,0,0,0,13847,24786,3163,17482,0,0,0,0,0.00,0.00,0.00,0.00
2016-09-14 07:30:00,0,5969,5,0.00,0,0,0,0,3263,10169,2368,4968,0,10,5,5,0.00,0.00,0.00,0.00
2016-09-14 07:40:00,0,4323,10,0.00,0,0,0,0,2616,7199,1431,3872,10,10,0,10,0.00,0.00,0.00,0.00
2016-09-14 07:50:00,0,2975,10,0.00,0,0,0,0,1999,4843,947,2555,10,10,0,10,0.00,0.00,0.00,0.00
2016-09-14 08:00:00,0,2359,10,0.00,0,0,0,0,1210,3881,810,2195,10,10,0,10,0.00,0.00,0.00,0.00
2016-09-14 08:10:00,0,2311,10,0.00,0,0,0,0,1315,3716,769,2130,10,10,0,10,0.00,0.00,0.00,0.00
2016-09-14 08:20:00,0,1716,10,0.00,0,0,0,0,481,3282,935,1810,10,10,0,10,0.00,0.00,0.00,0.00
2016-09-14 08:30:00,0,884,17,0.00,0,0,0,0,545,2006,442,694,10,34,10,10,0.00,0.00,0.00,0.00
2016-09-14 08:40:00,0,566,34,0.00,0,0,0,0,294,891,202,545,34,34,0,34,0.00,0.00,0.00,0.00
2016-09-14 08:50:00,0,260,34,0.00,0,0,0,0,184,383,58,253,34,34,0,34,0.00,0.00,0.00,0.00
2016-09-14 09:00:00,0,198,34,0.00,0,0,0,0,189,205,4,200,34,34,0,34,0.00,0.00,0.00,0.00
2016-09-14 09:10:00,0,173,34,0.00,0,0,0,0,156,205,15,170,34,34,0,34,0.00,0.00,0.00,0.00
2016-09-14 09:20:00,0,165,34,0.00,0,0,0,0,161,176,4,164,34,34,0,34,0.00,0.00,0.00,0.00
2016-09-14 09:30:00,0,192,34,0.00,0,0,0,0,169,214,13,192,34,34,0,34,0.00,0.00,0.00,0.00
2016-09-14 09:40:00,0,137,34,0.00,0,0,0,0,127,191,19,130,34,34,0,34,0.00,0.00,0.00,0.00
2016-09-14 09:50:00,0,143,34,0.00,0,0,0,0,126,162,13,138,30,34,1,34,0.00,0.00,0.00,0.00
2016-09-14 10:00:00,0,129,32,0.00,0,0,0,0,121,136,5,129,30,34,2,32,0.00,0.00,0.00,0.00
2016-09-14 10:10:00,0,116,32,0.00,0,0,0,0,108,123,6,116,30,34,2,34,0.00,0.00,0.00,0.00
2016-09-14 10:20:00,0,104,34,0.00,0,0,0,0,100,109,3,103,34,34,0,34,0.00,0.00,0.00,0.00
2016-09-14 10:30:00,0,100,34,0.00,0,0,0,0,95,103,3,99,34,34,0,34,0.00,0.00,0.00,0.00
2016-09-14 10:40:00,0,92,34,0.00,0,0,0,0,89,98,2,91,34,34,0,34,0.00,0.00,0.00,0.00
2016-09-14 10:50:00,0,93,34,0.00,0,0,0,0,80,114,13,87,34,34,0,34,0.00,0.00,0.00,0.00
2016-09-14 11:00:00,0,148,33,0.00,0,0,0,0,105,226,42,134,30,34,1,33,0.00,0.00,0.00,0.00
2016-09-14 11:10:00,0,208,32,0.00,0,0,0,0,175,272,27,201,32,33,0,32,0.00,0.00,0.00,0.00
2016-09-14 11:20:00,0,360,32,0.00,0,0,0,0,284,460,60,346,32,32,0,32,0.00,0.00,0.00,0.00
2016-09-14 11:30:00,0,376,32,0.00,0,0,0,0,277,595,106,344,32,32,0,32,0.00,0.00,0.00,0.00
2016-09-14 11:40:00,0,395,32,0.00,0,0,0,0,311,445,38,392,32,32,0,32,0.00,0.00,0.00,0.00
2016-09-14 11:50:00,0,1191,32,0.00,0,0,0,0,421,3955,988,832,32,32,0,32,0.00,0.00,0.00,0.00
2016-09-14 12:00:00,0,1336,25,0.00,0,0,0,0,535,2248,570,1245,20,32,6,20,0.00,0.00,0.00,0.00
2016-09-14 12:10:00,0,576,32,0.00,0,0,0,0,439,719,85,577,30,32,1,32,0.00,0.00,0.00,0.00
2016-09-14 12:20:00,0,858,32,0.00,0,0,0,0,466,2380,526,674,32,32,0,32,0.00,0.00,0.00,0.00
2016-09-14 12:30:00,0,4674,30,0.00,0,0,0,0,848,10929,3374,4322,20,32,4,32,0.00,0.00,0.00,0.00
2016-09-14 12:40:00,0,19747,20,0.00,0,0,0,0,13309,27936,3871,19460,20,20,0,20,0.00,0.00,0.00,0.00
2016-09-14 12:50:00,0,28266,20,0.00,0,0,0,0,1766,46819,14367,27354,20,20,0,20,0.00,0.00,0.00,0.00
2016-09-14 13:00:00,0,319,30,0.00,0,0,0,0,241,367,43,336,20,33,5,32,0.00,0.00,0.00,0.00
2016-09-14 13:10:00,0,541,34,0.00,0,0,0,0,333,958,230,454,33,34,0,34,0.00,0.00,0.00,0.00
2016-09-14 13:20:00,0,659,34,0.00,0,0,0,0,494,1164,189,588,34,34,0,34,0.00,0.00,0.00,0.00
2016-09-14 13:30:00,0,8464,33,0.00,0,0,0,0,572,22466,7307,6960,30,34,2,34,0.00,0.00,0.00,0.00
2016-09-14 13:40:00,0,42734,26,0.00,0,0,0,0,28624,50000,7088,45517,20,30,5,30,0.00,0.00,0.00,0.00
2016-09-14 13:50:00,0,46627,20,0.00,0,0,0,0,39689,50000,4120,49160,20,20,0,20,0.00,0.00,0.00,0.00
2016-09-14 14:00:00,0,47750,20,0.00,0,0,0,0,43287,50000,2130,48280,20,20,0,20,0.00,0.00,0.00,0.00
2016-09-14 14:10:00,0,48024,20,0.00,0,0,0,0,43607,50000,2457,49373,20,20,0,20,0.00,0.00,0.00,0.00
2016-09-14 14:20:00,0,47600,20,0.00,0,0,0,0,42347,50000,2330,48016,20,20,0,20,0.00,0.00,0.00,0.00
2016-09-14 14:30:00,0,49719,20,0.00,0,0,0,0,47709,50000,688,50000,20,20,0,20,0.00,0.00,0.00,0.00
2016-09-14 14:40:00,0,47999,12,0.00,0,0,0,0,41162,50000,2886,50000,0,20,10,20,0.00,0.00,0.00,0.00
2016-09-14 14:50:00,0,40041,34,0.02,0,0,0,0,25409,50000,8431,42678,0,61,28,51,0.00,0.15,0.05,0.00
2016-09-14 15:00:00,0,49410,0,0.00,0,0,0,0,45455,50000,1362,50000,0,0,0,0,0.00,0.00,0.00,0.00
2016-09-14 15:10:00,0,49243,0,0.00,0,0,0,0,46513,50000,1240,50000,0,0,0,0,0.00,0.00,0.00,0.00
2016-09-14 15:20:00,0,49899,0,0.00,0,0,0,0,48986,50000,304,50000,0,0,0,0,0.00,0.00,0.00,0.00
2016-09-14 15:30:00,0,47789,0,0.00,0,0,0,0,43717,50000,2159,47996,0,0,0,0,0.00,0.00,0.00,0.00
2016-09-14 15:40:00,0,47936,0,0.00,0,0,0,0,44434,50000,2142,48428,0,0,0,0,0.00,0.00,0.00,0.00
2016-09-14 15:50:00,0,49355,0,0.00,0,0,0,0,45219,50000,1440,50000,0,0,0,0,0.00,0.00,0.00,0.00
2016-09-14 16:00:00,0,49085,0,0.00,0,0,0,0,45043,50000,1537,50000,0,0,0,0,0.00,0.00,0.00,0.00
2016-09-14 16:10:00,0,49040,0,0.00,0,0,0,0,46023,50000,1287,49722,0,0,0,0,0.00,0.00,0.00,0.00
2016-09-14 16:20:00,0,48525,0,0.00,0,0,0,0,43481,50000,2260,50000,0,0,0,0,0.00,0.00,0.00,0.00
2016-09-14 16:30:00,0,49838,0,0.00,0,0,0,0,48383,50000,485,50000,0,0,0,0,0.00,0.00,0.00,0.00
2016-09-14 16:40:00,0,48797,0,0.00,0,0,0,0,44065,50000,1854,49656,0,0,0,0,0.00,0.00,0.00,0.00
2016-09-14 16:50:00,0,49823,0,0.00,0,0,0,0,48226,50000,532,50000,0,0,0,0,0.00,0.00,0.00,0.00
2016-09-14 17:00:00,0,49924,0,0.00,0,0,0,0,49244,50000,227,50000,0,0,0,0,0.00,0.00,0.00,0.00
2016-09-14 17:10:00,0,50000,0,0.00,0,0,0,0,50000,50000,0,50000,0,0,0,0,0.00,0.00,0.00,0.00
2016-09-14 17:20:00,0,49569,0,0.00,0,0,0,0,48247,50000,670,50000,0,0,0,0,0.00,0.00,0.00,0.00
2016-09-14 17:30:00,0,49368,0,0.00,0,0,0,0,47269,50000,984,50000,0,0,0,0,0.00,0.00,0.00,0.00
2016-09-14 17:40:00,0,47424,0,0.00,0,0,0,0,40772,50000,2917,48004,0,0,0,0,0.00,0.00,0.00,0.00
2016-09-14 17:50:00,0,49510,0,0.00,0,0,0,0,48138,50000,759,50000,0,0,0,0,0.00,0.00,0.00,0.00
2016-09-14 18:00:00,0,47010,0,0.00,0,0,0,0,42142,50000,2095,46906,0,0,0,0,0.00,0.00,0.00,0.00
2016-09-14 18:10:00,0,45276,0,0.00,0,0,0,0,37179,50000,4419,45771,0,0,0,0,0.00,0.00,0.00,0.00
2016-09-14 18:20:00,0,44558,0,0.00,0,0,0,0,37752,50000,3823,45114,0,0,0,0,0.00,0.00,0.00,0.00
2016-09-14 18:30:00,0,43450,0,0.00,0,0,0,0,37597,48305,3585,43912,0,0,0,0,0.00,0.00,0.00,0.00
2016-09-14 18:40:00,0,45332,0,0.00,0,0,0,0,39718,50000,3037,45589,0,0,0,0,0.00,0.00,0.00,0.00
2016-09-14 18:50:00,0,44112,0,0.00,0,0,0,0,40413,50000,3054,43663,0,0,0,0,0.00,0.00,0.00,0.00
2016-09-14 19:00:00,0,45788,0,0.00,0,0,0,0,41078,48781,2697,46600,0,0,0,0,0.00,0.00,0.00,0.00
2016-09-14 19:10:00,0,44984,0,0.00,0,0,0,0,39453,50000,3177,45174,0,0,0,0,0.00,0.00,0.00,0.00
2016-09-14 19:20:00,0,42885,0,0.00,0,0,0,0,35094,49296,4699,43806,0,0,0,0,0.00,0.00,0.00,0.00
2016-09-14 19:30:00,0,42940,0,0.00,0,0,0,0,38618,48828,2755,42910,0,0,0,0,0.00,0.00,0.00,0.00
2016-09-14 19:40:00,0,46462,0,0.00,0,0,0,0,39281,50000,3653,48670,0,0,0,0,0.00,0.00,0.00,0.00
2016-09-14 19:50:00,0,39906,0,0.00,0,0,0,0,31942,50000,5659,40731,0,0,0,0,0.00,0.00,0.00,0.00
2016-09-14 20:00:00,0,45409,0,0.00,0,0,0,0,39519,50000,3174,44776,0,0,0,0,0.00,0.00,0.00,0.00
2016-09-14 20:10:00,0,44199,0,0.00,0,0,0,0,39057,50000,2999,44470,0,0,0,0,0.00,0.00,0.00,0.00
2016-09-14 20:20:00,0,41895,0,0.00,0,0,0,0,37130,46340,3502,41016,0,0,0,0,0.00,0.00,0.00,0.00
2016-09-14 20:30:00,0,42556,0,0.00,0,0,0,0,37927,47684,3103,42280,0,0,0,0,0.00,0.00,0.00,0.00
2016-09-14 20:40:00,0,38168,0,0.00,0,0,0,0,34828,41905,2297,38354,0,0,0,0,0.00,0.00,0.00,0.00
2016-09-14 20:50:00,0,46725,0,0.00,0,0,0,0,42785,50000,2618,46725,0,0,0,0,0.00,0.00,0.00,0.00
2016-09-14 21:00:00,0,46385,0,0.00,0,0,0,0,41305,50000,2480,46958,0,0,0,0,0.00,0.00,0.00,0.00
2016-09-14 21:10:00,0,42789,0,0.00,0,0,0,0,37973,50000,3809,41686,0,0,0,0,0.00,0.00,0.00,0.00
2016-09-14 21:20:00,0,38490,0,0.00,0,0,0,0,35086,43524,2715,38024,0,0,0,0,0.00,0.00,0.00,0.00
2016-09-14 21:30:00,0,44696,0,0.00,0,0,0,0,39873,50000,2854,43510,0,0,0,0,0.00,0.00,0.00,0.00
2016-09-14 21:40:00,0,45015,0,0.00,0,0,0,0,41391,50000,2495,44704,0,0,0,0,0.00,0.00,0.00,0.00
2016-09-14 21:50:00,0,43032,0,0.00,0,0,0,0,36351,47388,3574,43597,0,0,0,0,0.00,0.00,0.00,0.00
2016-09-14 22:00:00,0,44156,0,0.00,0,0,0,0,40319,50000,3087,43276,0,0,0,0,0.00,0.00,0.00,0.00
2016-09-14 22:10:00,0,44400,0,0.00,0,0,0,0,39263,49687,3727,44110,0,0,0,0,0.00,0.00,0.00,0.00
2016-09-14 22:20:00,0,42682,0,0.00,0,0,0,0,35369,50000,4897,42238,0,0,0,0,0.00,0.00,0.00,0.00
2016-09-14 22:30:00,0,43207,0,0.00,0,0,0,0,36814,49808,4299,44480,0,0,0,0,0.00,0.00,0.00,0.00
2016-09-14 22:40:00,0,44783,0,0.00,0,0,0,0,35832,50000,3841,46313,0,0,0,0,0.00,0.00,0.00,0.00
2016-09-14 22:50:00,0,40915,0,0.00,0,0,0,0,36855,46635,2985,40883,0,0,0,0,0.00,0.00,0.00,0.00
2016-09-14 23:00:00,0,39832,0,0.00,0,0,0,0,33638,49001,3993,39738,0,0,0,0,0.00,0.00,0.00,0.00
2016-09-14 23:10:00,0,40784,0,0.00,0,0,0,0,30339,46541,5316,41618,0,0,0,0,0.00,0.00,0.00,0.00
2016-09-14 23:20:00,0,35854,0,0.00,0,2,1,0,24961,45414,6084,37653,0,0,0,0,0.00,0.00,0.00,0.00
2016-09-14 23:30:00,2,33450,0,0.00,2,2,0,2,27310,46378,6975,30704,0,0,0,0,0.00,0.00,0.00,0.00
2016-09-14 23:40:00,2,38624,0,0.00,2,2,0,2,26867,48168,6268,39212,0,0,0,0,0.00,0.00,0.00,0.00
2016-09-14 23:50:00,2,31671,0,0.00,2,2,0,2,17075,40618,7524,32220,0,0,0,0,0.00,0.00,0.00,0.00
